TimeMDT,TemperatureF,Dew PointF,Humidity,Sea Level PressureIn,VisibilityMPH,Wind Direction,Wind SpeedMPH,Gust SpeedMPH,PrecipitationIn,Events,Conditions,WindDirDegrees,DateUTC
12:14 AM,17.6,12.2,79,29.82,10.0,SW,12.7,-,N/A,,Clear,220,2013-04-11 06:14:00
12:34 AM,17.6,12.2,79,29.80,10.0,SW,11.5,-,N/A,,Clear,220,2013-04-11 06:34:00
12:54 AM,15.8,12.2,86,29.80,10.0,SW,13.8,-,N/A,,Clear,220,2013-04-11 06:54:00
1:14 AM,17.6,12.2,79,29.79,10.0,SW,12.7,-,N/A,,Clear,220,2013-04-11 07:14:00
1:34 AM,17.6,10.4,73,29.78,10.0,SSW,11.5,-,N/A,,Clear,210,2013-04-11 07:34:00
1:54 AM,17.6,10.4,73,29.76,10.0,SW,12.7,-,N/A,,Clear,220,2013-04-11 07:54:00
2:14 AM,17.6,10.4,73,29.75,10.0,SW,13.8,-,N/A,,Clear,220,2013-04-11 08:14:00
2:34 AM,17.6,10.4,73,29.73,10.0,SW,13.8,-,N/A,,Clear,230,2013-04-11 08:34:00
2:54 AM,17.6,10.4,73,29.73,10.0,SW,13.8,-,N/A,,Clear,220,2013-04-11 08:54:00
3:14 AM,17.6,10.4,73,29.72,10.0,SW,11.5,-,N/A,,Clear,230,2013-04-11 09:14:00
3:34 AM,19.4,10.4,68,29.71,10.0,SW,12.7,-,N/A,,Clear,230,2013-04-11 09:34:00
3:54 AM,21.2,10.4,63,29.71,10.0,WSW,10.4,-,N/A,,Scattered Clouds,240,2013-04-11 09:54:00
4:14 AM,21.2,12.2,68,29.71,10.0,WSW,10.4,-,N/A,,Mostly Cloudy,240,2013-04-11 10:14:00
4:34 AM,23.0,14.0,68,29.71,10.0,SW,10.4,-,N/A,,Overcast,230,2013-04-11 10:34:00
4:54 AM,24.8,17.6,74,29.70,10.0,WSW,9.2,-,N/A,,Mostly Cloudy,250,2013-04-11 10:54:00
5:14 AM,26.6,17.6,69,29.69,10.0,WSW,8.1,-,N/A,,Mostly Cloudy,250,2013-04-11 11:14:00
5:33 AM,28.4,17.6,64,29.69,10.0,West,9.2,-,N/A,,Scattered Clouds,270,2013-04-11 11:33:00
5:54 AM,26.6,17.6,69,29.69,10.0,West,9.2,-,N/A,,Mostly Cloudy,280,2013-04-11 11:54:00
6:14 AM,26.6,17.6,69,29.70,10.0,West,9.2,-,N/A,,Scattered Clouds,280,2013-04-11 12:14:00
6:34 AM,26.6,17.6,69,29.70,10.0,West,9.2,-,N/A,,Clear,280,2013-04-11 12:34:00
6:54 AM,24.8,15.8,69,29.70,10.0,West,8.1,-,N/A,,Clear,280,2013-04-11 12:54:00
7:14 AM,24.8,17.6,74,29.71,10.0,WSW,6.9,-,N/A,,Clear,250,2013-04-11 13:14:00
7:34 AM,30.2,19.4,64,29.71,10.0,West,9.2,-,N/A,,Clear,270,2013-04-11 13:34:00
7:54 AM,32.0,21.2,64,29.73,10.0,West,5.8,-,N/A,,Clear,280,2013-04-11 13:54:00
8:14 AM,33.8,21.2,60,29.73,10.0,WNW,6.9,-,N/A,,Clear,290,2013-04-11 14:14:00
8:33 AM,33.8,21.2,60,29.73,10.0,NW,11.5,-,N/A,,Clear,310,2013-04-11 14:33:00
8:54 AM,35.6,23.0,60,29.73,10.0,WNW,9.2,-,N/A,,Scattered Clouds,300,2013-04-11 14:54:00
9:14 AM,35.6,24.8,65,29.74,10.0,WNW,9.2,-,N/A,,Mostly Cloudy,300,2013-04-11 15:14:00
9:34 AM,35.6,26.6,70,29.75,10.0,WNW,9.2,-,N/A,,Overcast,300,2013-04-11 15:34:00
9:54 AM,35.6,26.6,70,29.76,10.0,NW,5.8,-,N/A,,Overcast,320,2013-04-11 15:54:00
10:14 AM,37.4,26.6,65,29.76,10.0,NNW,6.9,-,N/A,,Mostly Cloudy,340,2013-04-11 16:14:00
10:34 AM,39.2,23.0,52,29.77,10.0,NNW,9.2,16.1,N/A,,Scattered Clouds,330,2013-04-11 16:34:00
11:14 AM,41.0,26.6,57,29.78,10.0,NW,9.2,-,N/A,,Clear,320,2013-04-11 17:14:00
11:34 AM,42.8,24.8,49,29.78,10.0,North,10.4,-,N/A,,Scattered Clouds,350,2013-04-11 17:34:00
11:54 AM,44.6,24.8,46,29.78,10.0,North,10.4,-,N/A,,Scattered Clouds,360,2013-04-11 17:54:00
12:14 PM,42.8,26.6,53,29.79,10.0,NNW,10.4,23.0,N/A,,Clear,340,2013-04-11 18:14:00
12:34 PM,44.6,28.4,53,29.79,10.0,WNW,20.7,-,N/A,,Scattered Clouds,300,2013-04-11 18:34:00
12:54 PM,44.6,28.4,53,29.79,10.0,NNW,20.7,27.6,N/A,,Mostly Cloudy,330,2013-04-11 18:54:00
1:14 PM,44.6,26.6,49,29.79,10.0,North,16.1,-,N/A,,Scattered Clouds,350,2013-04-11 19:14:00
1:34 PM,44.6,28.4,53,29.78,10.0,NNE,6.9,11.5,N/A,,Scattered Clouds,30,2013-04-11 19:34:00
1:54 PM,44.6,28.4,53,29.78,10.0,ENE,9.2,-,N/A,,Scattered Clouds,60,2013-04-11 19:54:00
2:13 PM,42.8,28.4,57,29.79,10.0,NNE,6.9,-,N/A,,Scattered Clouds,20,2013-04-11 20:13:00
2:34 PM,42.8,28.4,57,29.79,10.0,NNE,6.9,-,N/A,,Mostly Cloudy,30,2013-04-11 20:34:00
2:54 PM,42.8,28.4,57,29.79,10.0,NE,11.5,-,N/A,,Overcast,40,2013-04-11 20:54:00
3:14 PM,37.4,30.2,75,29.81,10.0,NE,18.4,25.3,N/A,,Mostly Cloudy,40,2013-04-11 21:14:00
3:34 PM,37.4,32.0,81,29.81,10.0,NE,12.7,-,N/A,,Overcast,40,2013-04-11 21:34:00
3:53 PM,37.4,30.2,75,29.81,10.0,NNE,10.4,-,N/A,,Overcast,30,2013-04-11 21:53:00
4:13 PM,37.4,32.0,81,29.81,10.0,ENE,12.7,-,N/A,,Overcast,60,2013-04-11 22:13:00
4:33 PM,41.0,32.0,70,29.81,10.0,NE,11.5,17.3,N/A,,Overcast,40,2013-04-11 22:33:00
4:54 PM,37.4,32.0,81,-9999,10.0,NNE,11.5,17.3,N/A,,Mostly Cloudy,30,2013-04-11 22:54:00
5:14 PM,39.2,32.0,75,29.82,10.0,NE,11.5,17.3,N/A,,Scattered Clouds,40,2013-04-11 23:14:00
5:34 PM,37.4,30.2,75,29.82,10.0,North,9.2,-,N/A,,Scattered Clouds,10,2013-04-11 23:34:00
5:54 PM,37.4,32.0,81,29.83,10.0,NE,8.1,-,N/A,,Mostly Cloudy,40,2013-04-11 23:54:00
6:14 PM,35.6,32.0,87,29.84,10.0,NE,6.9,-,N/A,,Scattered Clouds,50,2013-04-12 00:14:00
6:34 PM,35.6,32.0,87,29.84,10.0,NE,8.1,-,N/A,,Scattered Clouds,50,2013-04-12 00:34:00
6:53 PM,35.6,30.2,81,29.84,10.0,NE,5.8,-,N/A,,Clear,40,2013-04-12 00:53:00
7:14 PM,33.8,30.2,87,29.84,10.0,ENE,8.1,-,N/A,,Scattered Clouds,60,2013-04-12 01:14:00
7:34 PM,32.0,30.2,93,29.84,10.0,NE,5.8,-,N/A,,Clear,50,2013-04-12 01:34:00
7:54 PM,32.0,30.2,93,29.86,10.0,East,4.6,-,N/A,,Scattered Clouds,80,2013-04-12 01:54:00
8:14 PM,32.0,30.2,93,29.87,10.0,ENE,3.5,-,N/A,,Mostly Cloudy,60,2013-04-12 02:14:00
8:34 PM,32.0,30.2,93,29.87,10.0,ESE,4.6,-,N/A,,Scattered Clouds,120,2013-04-12 02:34:00
8:54 PM,32.0,30.2,93,29.87,10.0,East,4.6,-,N/A,,Mostly Cloudy,80,2013-04-12 02:54:00
9:14 PM,32.0,30.2,93,29.88,10.0,Calm,Calm,-,N/A,,Scattered Clouds,0,2013-04-12 03:14:00
9:34 PM,32.0,30.2,93,29.89,10.0,Calm,Calm,-,N/A,,Clear,0,2013-04-12 03:34:00
9:53 PM,32.0,30.2,93,29.89,10.0,East,3.5,-,N/A,,Clear,80,2013-04-12 03:53:00
10:14 PM,30.2,30.2,100,29.91,10.0,SSE,3.5,-,N/A,,Clear,160,2013-04-12 04:14:00
10:34 PM,26.6,26.6,100,29.91,10.0,South,4.6,-,N/A,,Clear,190,2013-04-12 04:34:00
10:54 PM,26.6,26.6,100,29.92,10.0,South,5.8,-,N/A,,Clear,190,2013-04-12 04:54:00
11:14 PM,28.4,26.6,93,29.92,10.0,South,6.9,-,N/A,,Scattered Clouds,170,2013-04-12 05:14:00
11:34 PM,30.2,28.4,93,29.92,10.0,South,6.9,-,N/A,,Mostly Cloudy,170,2013-04-12 05:34:00
11:54 PM,30.2,28.4,93,29.92,10.0,ESE,5.8,-,N/A,,Overcast,110,2013-04-12 05:54:00